| time (UTC) | temp F | wind direction | speed MPH | gust MPH | rain 1hr in | rain 24hr in | rain mn in | humidity % | barometer mb |
| 20260503235003 | 52 | 314 | 6.0 | 11.0 | 0.00 | 0.00 | 0.00 | 47 | 1002.3 |
| 20260503234002 | 53 | 314 | 7.0 | 13.0 | 0.00 | 0.00 | 0.00 | 47 | 1002.5 |
| 20260503233003 | 53 | 316 | 7.0 | 10.0 | 0.00 | 0.00 | 0.00 | 46 | 1002.7 |
| 20260503232003 | 53 | 330 | 7.0 | 11.0 | 0.00 | 0.00 | 0.00 | 45 | 1002.8 |
| 20260503231003 | 53 | 314 | 9.0 | 12.0 | 0.00 | 0.00 | 0.00 | 44 | 1002.9 |
| 20260503230003 | 54 | 314 | 9.0 | 14.0 | 0.00 | 0.00 | 0.00 | 42 | 1003.2 |
| 20260503225003 | 54 | 314 | 8.0 | 14.0 | 0.00 | 0.00 | 0.00 | 41 | 1003.3 |
| 20260503224003 | 55 | 314 | 10.0 | 17.0 | 0.00 | 0.00 | 0.00 | 40 | 1003.7 |
| 20260503223002 | 56 | 314 | 10.0 | 19.0 | 0.00 | 0.00 | 0.00 | 39 | 1004.0 |
| 20260503222003 | 57 | 313 | 11.0 | 13.0 | 0.00 | 0.00 | 0.00 | 38 | 1004.3 |
| 20260503221003 | 58 | 314 | 12.0 | 18.0 | 0.00 | 0.00 | 0.00 | 34 | 1004.8 |
| 20260503220003 | 59 | 264 | 10.0 | 22.0 | 0.00 | 0.00 | 0.00 | 33 | 1005.1 |
| 20260503215003 | 60 | 314 | 13.0 | 17.0 | 0.00 | 0.00 | 0.00 | 30 | 1005.2 |
| 20260503214003 | 60 | 321 | 12.0 | 16.0 | 0.00 | 0.00 | 0.00 | 28 | 1005.1 |
| 20260503213002 | 61 | 329 | 12.0 | 16.0 | 0.00 | 0.00 | 0.00 | 26 | 1005.0 |
| 20260503212002 | 63 | 282 | 12.0 | 19.0 | 0.00 | 0.00 | 0.00 | 25 | 1005.2 |
| 20260503211003 | 61 | 266 | 12.0 | 15.0 | 0.00 | 0.00 | 0.00 | 27 | 1004.5 |
| 20260503210003 | 61 | 281 | 10.0 | 15.0 | 0.00 | 0.00 | 0.00 | 27 | 1004.5 |
| 20260503205003 | 61 | 281 | 11.0 | 15.0 | 0.00 | 0.00 | 0.00 | 27 | 1004.4 |
| 20260503202003 | 66 | 244 | 10.0 | 15.0 | 0.00 | 0.00 | 0.00 | 24 | 1004.0 |
| 20260503201002 | 63 | 284 | 11.0 | 17.0 | 0.00 | 0.00 | 0.00 | 22 | 1003.6 |
| 20260503200003 | 65 | 305 | 12.0 | 17.0 | 0.00 | 0.00 | 0.00 | 22 | 1003.4 |
| 20260503195002 | 66 | 225 | 11.0 | 17.0 | 0.00 | 0.00 | 0.00 | 24 | 1003.0 |
| 20260503194003 | 65 | 294 | 11.0 | 17.0 | 0.00 | 0.00 | 0.00 | 22 | 1002.6 |
| 20260503193002 | 65 | 236 | 12.0 | 15.0 | 0.00 | 0.00 | 0.00 | 24 | 1002.3 |
| 20260503192003 | 66 | 270 | 10.0 | 23.0 | 0.00 | 0.00 | 0.00 | 25 | 1001.9 |
| 20260503191003 | 65 | 349 | 11.0 | 16.0 | 0.00 | 0.00 | 0.00 | 24 | 1001.6 |
| 20260503190004 | 65 | 276 | 10.0 | 17.0 | 0.00 | 0.00 | 0.00 | 25 | 1001.5 |
| 20260503185002 | 63 | 310 | 10.0 | 16.0 | 0.00 | 0.00 | 0.00 | 21 | 1001.2 |
| 20260503184003 | 64 | 314 | 9.0 | 16.0 | 0.00 | 0.00 | 0.00 | 24 | 1000.9 |
| 20260503183003 | 62 | 314 | 13.0 | 16.0 | 0.00 | 0.00 | 0.00 | 23 | 1000.9 |
| 20260503182003 | 64 | 273 | 13.0 | 17.0 | 0.00 | 0.00 | 0.00 | 21 | 1000.9 |
| 20260503180004 | 62 | 317 | 14.0 | 23.0 | 0.00 | 0.00 | 0.00 | 23 | 1000.5 |
| 20260503175003 | 62 | 1 | 14.0 | 19.0 | 0.00 | 0.00 | 0.00 | 24 | 1000.5 |
| 20260503174003 | 62 | 1 | 11.0 | 19.0 | 0.00 | 0.00 | 0.00 | 24 | 1000.3 |
| 20260503173003 | 60 | 25 | 11.0 | 16.0 | 0.00 | 0.00 | 0.00 | 25 | 1000.3 |
| 20260503172002 | 62 | 243 | 11.0 | 14.0 | 0.00 | 0.00 | 0.00 | 25 | 1000.1 |
| 20260503171003 | 61 | 352 | 11.0 | 17.0 | 0.00 | 0.00 | 0.00 | 29 | 1000.1 |
| 20260503151003 | 51 | 324 | 11.0 | 15.0 | 0.00 | 0.00 | 0.00 | 34 | 998.6 |
| 20260503131003 | 51 | 267 | 8.0 | 11.0 | 0.00 | 0.00 | 0.00 | 34 | 997.5 |
| 20260503081002 | 32 | 337 | 0.0 | 2.0 | 0.00 | 0.00 | 0.00 | 55 | 1004.9 |
| 20260503072002 | 31 | 0 | 0.0 | 0.0 | 0.00 | 0.00 | 0.00 | 56 | 1005.3 |
| 20260503071002 | 31 | 0 | 0.0 | 0.0 | 0.00 | 0.00 | 0.00 | 55 | 1005.0 |
| 20260503054002 | 31 | 0 | 0.0 | 0.0 | 0.00 | 0.00 | 0.00 | 57 | 1006.0 |
| 20260503053002 | 30 | 0 | 0.0 | 0.0 | 0.00 | 0.00 | 0.00 | 58 | 996.8 |
| 20260503052002 | 30 | 337 | 0.0 | 1.0 | 0.00 | 0.00 | 0.00 | 59 | 1005.9 |
| 20260503051003 | 30 | 337 | 0.0 | 1.0 | 0.00 | 0.00 | 0.00 | 59 | 1005.9 |
| 20260503050002 | 30 | 337 | 0.0 | 1.0 | 0.00 | 0.00 | 0.00 | 60 | 996.9 |
| 20260503045003 | 30 | 337 | 0.0 | 1.0 | 0.00 | 0.00 | 0.00 | 59 | 1006.2 |
| 20260503044002 | 30 | 337 | 0.0 | 1.0 | 0.00 | 0.00 | 0.00 | 59 | 1005.9 |
| 20260503043002 | 30 | 337 | 0.0 | 1.0 | 0.00 | 0.00 | 0.00 | 58 | 1006.2 |
| 20260503042002 | 31 | 0 | 0.0 | 0.0 | 0.00 | 0.00 | 0.00 | 57 | 996.8 |
| 20260503041003 | 31 | 0 | 0.0 | 0.0 | 0.00 | 0.00 | 0.00 | 57 | 997.1 |
| 20260503040002 | 31 | 337 | 0.0 | 2.0 | 0.00 | 0.00 | 0.00 | 56 | 997.1 |
| 20260503035002 | 32 | 0 | 0.0 | 0.0 | 0.00 | 0.00 | 0.00 | 54 | 997.3 |
| 20260503034002 | 32 | 0 | 0.0 | 0.0 | 0.00 | 0.00 | 0.00 | 54 | 997.5 |
| 20260503033002 | 32 | 0 | 0.0 | 0.0 | 0.00 | 0.00 | 0.00 | 54 | 997.5 |
| 20260503032003 | 33 | 0 | 0.0 | 0.0 | 0.00 | 0.00 | 0.00 | 55 | 997.6 |
| 20260503031003 | 33 | 337 | 0.0 | 1.0 | 0.00 | 0.00 | 0.00 | 55 | 997.7 |
| 20260503030003 | 33 | 337 | 0.0 | 2.0 | 0.00 | 0.00 | 0.00 | 56 | 997.6 |
| 20260503025003 | 33 | 337 | 0.0 | 1.0 | 0.00 | 0.00 | 0.00 | 56 | 997.5 |
| 20260503024002 | 33 | 337 | 0.0 | 1.0 | 0.00 | 0.00 | 0.00 | 54 | 997.6 |
| 20260503023002 | 33 | 337 | 0.0 | 1.0 | 0.00 | 0.00 | 0.00 | 53 | 998.2 |
| 20260503022002 | 34 | 337 | 0.0 | 1.0 | 0.00 | 0.00 | 0.00 | 50 | 998.7 |
| 20260503021002 | 34 | 0 | 0.0 | 0.0 | 0.00 | 0.00 | 0.00 | 50 | 999.0 |
| 20260503020004 | 35 | 337 | 0.0 | 1.0 | 0.00 | 0.00 | 0.00 | 48 | 999.0 |
| 20260503015002 | 36 | 337 | 0.0 | 1.0 | 0.00 | 0.00 | 0.00 | 45 | 999.5 |
| 20260503014003 | 36 | 337 | 0.0 | 2.0 | 0.00 | 0.00 | 0.00 | 43 | 999.7 |
| 20260503013002 | 37 | 337 | 0.0 | 1.0 | 0.00 | 0.00 | 0.00 | 41 | 1000.6 |
| 20260503012003 | 38 | 0 | 0.0 | 0.0 | 0.00 | 0.00 | 0.00 | 44 | 1001.8 |
| 20260503011003 | 39 | 337 | 0.0 | 2.0 | 0.00 | 0.00 | 0.00 | 42 | 1002.2 |
| 20260503010002 | 40 | 0 | 0.0 | 0.0 | 0.00 | 0.00 | 0.00 | 38 | 1002.6 |
| 20260503005003 | 42 | 337 | 0.0 | 2.0 | 0.00 | 0.00 | 0.00 | 35 | 1003.0 |
| 20260503003003 | 44 | 338 | 2.0 | 4.0 | 0.00 | 0.00 | 0.00 | 31 | 1003.9 |
| 20260503002002 | 45 | 337 | 2.0 | 3.0 | 0.00 | 0.00 | 0.00 | 29 | 1004.6 |
| 20260503000003 | 46 | 337 | 3.0 | 4.0 | 0.00 | 0.00 | 0.00 | 28 | 1005.1 |